Time,TemperatureF,DewpointF,PressureIn,WindDirection,WindDirectionDegrees,WindSpeedMPH,WindSpeedGustMPH,Humidity,HourlyPrecipIn,Conditions,Clouds,dailyrainin,SoftwareType,DateUTC
2013-01-10 00:02:00,68.0,64.0,29.95,NNE,15,15.0,19.0,87,0.00,,,0.00,VWS V14.01,2013-01-10 10:02:00,
2013-01-10 00:07:00,68.0,63.7,29.95,NE,37,13.0,16.0,86,0.00,,,0.00,VWS V14.01,2013-01-10 10:07:00,
2013-01-10 00:12:00,68.0,63.7,29.95,NE,35,13.0,13.0,86,0.00,,,0.00,VWS V14.01,2013-01-10 10:12:00,
2013-01-10 00:17:00,68.0,64.0,29.95,NNE,31,11.0,16.0,87,0.00,,,0.00,VWS V14.01,2013-01-10 10:17:00,
2013-01-10 00:22:00,68.0,63.7,29.95,NNE,17,15.0,16.0,86,0.00,,,0.00,VWS V14.01,2013-01-10 10:22:00,
2013-01-10 00:27:00,68.0,63.3,29.95,NNE,21,13.0,13.0,85,0.00,,,0.00,VWS V14.01,2013-01-10 10:27:00,
2013-01-10 00:32:00,68.0,63.3,29.95,NE,45,12.0,12.0,85,0.00,,,0.00,VWS V14.01,2013-01-10 10:32:00,
2013-01-10 00:37:00,68.0,63.3,29.95,NE,55,5.0,8.0,85,0.00,,,0.00,VWS V14.01,2013-01-10 10:37:00,
2013-01-10 00:42:00,68.0,63.3,29.95,NNE,13,9.0,9.0,85,0.00,,,0.00,VWS V14.01,2013-01-10 10:42:00,
2013-01-10 00:47:00,68.0,63.7,29.94,ENE,67,6.0,12.0,86,0.00,,,0.00,VWS V14.01,2013-01-10 10:47:00,
2013-01-10 00:53:00,67.9,63.6,29.94,NE,39,7.0,11.0,86,0.00,,,0.00,VWS V14.01,2013-01-10 10:53:00,
2013-01-10 00:58:00,68.0,63.7,29.94,NNE,19,16.0,16.0,86,0.00,,,0.00,VWS V14.01,2013-01-10 10:58:00,
2013-01-10 01:03:00,68.0,63.7,29.94,NE,44,13.0,13.0,86,0.00,,,0.00,VWS V14.01,2013-01-10 11:03:00,
2013-01-10 01:08:00,68.0,63.7,29.94,ENE,66,10.0,10.0,86,0.00,,,0.00,VWS V14.01,2013-01-10 11:08:00,
2013-01-10 01:13:00,68.0,63.7,29.94,NNE,22,13.0,15.0,86,0.00,,,0.00,VWS V14.01,2013-01-10 11:13:00,
2013-01-10 01:18:00,67.9,63.2,29.94,NE,48,16.0,20.0,85,0.00,,,0.00,VWS V14.01,2013-01-10 11:18:00,
2013-01-10 01:23:00,67.9,63.2,29.93,NE,35,10.0,13.0,85,0.00,,,0.00,VWS V14.01,2013-01-10 11:23:00,
2013-01-10 01:28:00,67.9,63.2,29.94,NE,35,11.0,11.0,85,0.00,,,0.00,VWS V14.01,2013-01-10 11:28:00,
2013-01-10 01:33:00,67.8,63.1,29.93,North,1,24.0,24.0,85,0.00,,,0.00,VWS V14.01,2013-01-10 11:33:00,
2013-01-10 01:38:00,67.8,63.1,29.93,NE,35,9.0,10.0,85,0.00,,,0.00,VWS V14.01,2013-01-10 11:38:00,
2013-01-10 01:43:00,67.7,63.0,29.93,ENE,64,8.0,8.0,85,0.00,,,0.00,VWS V14.01,2013-01-10 11:43:00,
2013-01-10 01:48:00,67.7,62.7,29.93,NE,38,9.0,10.0,84,0.00,,,0.00,VWS V14.01,2013-01-10 11:48:00,
2013-01-10 01:53:00,67.8,62.8,29.93,NNE,25,23.0,23.0,84,0.00,,,0.00,VWS V14.01,2013-01-10 11:53:00,
2013-01-10 01:58:00,67.8,62.8,29.92,NNE,19,13.0,13.0,84,0.00,,,0.00,VWS V14.01,2013-01-10 11:58:00,
2013-01-10 02:04:00,67.8,62.5,29.92,NNE,13,13.0,13.0,83,0.00,,,0.00,VWS V14.01,2013-01-10 12:04:00,
2013-01-10 02:09:00,67.9,62.5,29.92,North,7,13.0,17.0,83,0.00,,,0.00,VWS V14.01,2013-01-10 12:09:00,
2013-01-10 02:14:00,67.9,62.5,29.92,NE,55,14.0,22.0,83,0.00,,,0.00,VWS V14.01,2013-01-10 12:14:00,
2013-01-10 02:19:00,67.8,62.5,29.92,NNE,22,12.0,12.0,83,0.00,,,0.00,VWS V14.01,2013-01-10 12:19:00,
2013-01-10 02:24:00,67.8,62.8,29.92,NNE,31,7.0,16.0,84,0.00,,,0.00,VWS V14.01,2013-01-10 12:24:00,
2013-01-10 02:29:00,67.8,62.8,29.92,NNE,24,8.0,15.0,84,0.00,,,0.00,VWS V14.01,2013-01-10 12:29:00,
2013-01-10 02:34:00,67.8,63.1,29.92,NNE,31,14.0,17.0,85,0.00,,,0.00,VWS V14.01,2013-01-10 12:34:00,
2013-01-10 02:39:00,67.8,63.1,29.92,NNE,12,19.0,19.0,85,0.00,,,0.00,VWS V14.01,2013-01-10 12:39:00,
2013-01-10 02:44:00,67.9,62.9,29.92,NE,44,10.0,17.0,84,0.00,,,0.00,VWS V14.01,2013-01-10 12:44:00,
2013-01-10 02:49:00,67.9,62.9,29.91,North,9,17.0,18.0,84,0.00,,,0.00,VWS V14.01,2013-01-10 12:49:00,
2013-01-10 02:54:00,67.9,62.5,29.91,NNE,32,8.0,12.0,83,0.00,,,0.00,VWS V14.01,2013-01-10 12:54:00,
2013-01-10 02:59:00,68.1,62.4,29.91,NNE,30,18.0,23.0,82,0.00,,,0.00,VWS V14.01,2013-01-10 12:59:00,
2013-01-10 03:04:00,68.1,62.4,29.91,NE,52,15.0,15.0,82,0.00,,,0.00,VWS V14.01,2013-01-10 13:04:00,
2013-01-10 03:10:00,68.0,62.7,29.91,ENE,67,16.0,16.0,83,0.00,,,0.00,VWS V14.01,2013-01-10 13:10:00,
2013-01-10 03:15:00,67.9,62.5,29.92,NNE,26,10.0,10.0,83,0.00,,,0.00,VWS V14.01,2013-01-10 13:15:00,
2013-01-10 03:20:00,67.7,62.4,29.92,NNE,26,11.0,11.0,83,0.00,,,0.00,VWS V14.01,2013-01-10 13:20:00,
2013-01-10 03:25:00,67.6,61.9,29.92,NNE,31,8.0,11.0,82,0.00,,,0.00,VWS V14.01,2013-01-10 13:25:00,
2013-01-10 03:30:00,67.7,62.0,29.91,NE,35,14.0,17.0,82,0.00,,,0.00,VWS V14.01,2013-01-10 13:30:00,
2013-01-10 03:35:00,67.8,62.1,29.91,North,351,8.0,14.0,82,0.00,,,0.00,VWS V14.01,2013-01-10 13:35:00,
2013-01-10 03:40:00,67.9,62.2,29.90,NNE,26,13.0,13.0,82,0.00,,,0.00,VWS V14.01,2013-01-10 13:40:00,
2013-01-10 03:45:00,68.0,62.3,29.90,NNE,21,18.0,19.0,82,0.00,,,0.00,VWS V14.01,2013-01-10 13:45:00,
2013-01-10 03:50:00,67.9,62.5,29.90,NE,35,12.0,17.0,83,0.00,,,0.00,VWS V14.01,2013-01-10 13:50:00,
2013-01-10 03:55:00,67.7,62.4,29.90,NNE,16,13.0,15.0,83,0.00,,,0.00,VWS V14.01,2013-01-10 13:55:00,
2013-01-10 04:00:00,67.5,62.5,29.90,NE,39,14.0,14.0,84,0.00,,,0.00,VWS V14.01,2013-01-10 14:00:00,
2013-01-10 04:05:00,67.4,62.1,29.91,NE,45,7.0,8.0,83,0.00,,,0.00,VWS V14.01,2013-01-10 14:05:00,
2013-01-10 04:10:00,67.6,62.3,29.90,ENE,63,13.0,16.0,83,0.00,,,0.00,VWS V14.01,2013-01-10 14:10:00,
2013-01-10 04:15:00,67.7,62.7,29.90,East,90,3.0,9.0,84,0.00,,,0.00,VWS V14.01,2013-01-10 14:15:00,
2013-01-10 04:20:00,67.8,62.8,29.90,NE,38,7.0,11.0,84,0.00,,,0.00,VWS V14.01,2013-01-10 14:20:00,
2013-01-10 04:25:00,67.7,62.7,29.90,NE,51,5.0,6.0,84,0.00,,,0.00,VWS V14.01,2013-01-10 14:25:00,
2013-01-10 04:30:00,67.6,62.6,29.91,ENE,68,3.0,3.0,84,0.00,,,0.00,VWS V14.01,2013-01-10 14:30:00,
2013-01-10 04:35:00,67.5,61.8,29.91,NE,36,12.0,12.0,82,0.00,,,0.00,VWS V14.01,2013-01-10 14:35:00,
2013-01-10 04:40:00,67.6,61.9,29.91,NW,313,5.0,5.0,82,0.00,,,0.00,VWS V14.01,2013-01-10 14:40:00,
2013-01-10 04:45:00,67.6,61.9,29.91,NNW,346,6.0,7.0,82,0.00,,,0.00,VWS V14.01,2013-01-10 14:45:00,
2013-01-10 04:50:00,67.5,61.5,29.91,NNW,334,3.0,7.0,81,0.00,,,0.00,VWS V14.01,2013-01-10 14:50:00,
2013-01-10 04:55:00,67.7,61.3,29.91,NNW,335,6.0,7.0,80,0.00,,,0.00,VWS V14.01,2013-01-10 14:55:00,
2013-01-10 05:00:00,67.8,61.1,29.91,NNE,33,6.0,6.0,79,0.00,,,0.00,VWS V14.01,2013-01-10 15:00:00,
2013-01-10 05:06:00,68.1,61.0,29.91,East,92,13.0,16.0,78,0.00,,,0.00,VWS V14.01,2013-01-10 15:06:00,
2013-01-10 05:11:00,67.9,61.2,29.91,NNE,19,10.0,17.0,79,0.00,,,0.00,VWS V14.01,2013-01-10 15:11:00,
2013-01-10 05:16:00,67.9,61.9,29.91,NE,44,9.0,10.0,81,0.00,,,0.00,VWS V14.01,2013-01-10 15:16:00,
2013-01-10 05:21:00,67.9,61.9,29.91,NE,38,10.0,13.0,81,0.00,,,0.00,VWS V14.01,2013-01-10 15:21:00,
2013-01-10 05:26:00,67.8,61.8,29.91,East,89,6.0,7.0,81,0.00,,,0.00,VWS V14.01,2013-01-10 15:26:00,
2013-01-10 05:31:00,67.7,61.7,29.91,NNW,337,6.0,11.0,81,0.00,,,0.00,VWS V14.01,2013-01-10 15:31:00,
2013-01-10 05:36:00,67.8,61.4,29.92,NE,49,8.0,11.0,80,0.00,,,0.00,VWS V14.01,2013-01-10 15:36:00,
2013-01-10 05:41:00,67.9,61.5,29.92,NE,54,8.0,15.0,80,0.00,,,0.00,VWS V14.01,2013-01-10 15:41:00,
2013-01-10 05:46:00,67.9,61.5,29.92,NNE,18,9.0,13.0,80,0.00,,,0.00,VWS V14.01,2013-01-10 15:46:00,
2013-01-10 05:51:00,67.9,61.9,29.92,North,349,9.0,11.0,81,0.00,,,0.00,VWS V14.01,2013-01-10 15:51:00,
2013-01-10 05:56:00,67.9,62.5,29.92,NNE,22,8.0,11.0,83,0.00,,,0.00,VWS V14.01,2013-01-10 15:56:00,
2013-01-10 06:01:00,68.0,62.7,29.92,North,10,18.0,18.0,83,0.00,,,0.00,VWS V14.01,2013-01-10 16:01:00,
2013-01-10 06:06:00,68.1,63.1,29.92,NNE,33,7.0,12.0,84,0.00,,,0.00,VWS V14.01,2013-01-10 16:06:00,
2013-01-10 06:11:00,68.1,63.1,29.92,NE,44,9.0,10.0,84,0.00,,,0.00,VWS V14.01,2013-01-10 16:11:00,
2013-01-10 06:16:00,68.1,63.4,29.93,NNE,22,17.0,17.0,85,0.00,,,0.00,VWS V14.01,2013-01-10 16:16:00,
2013-01-10 06:21:00,68.2,63.5,29.93,NNE,33,10.0,14.0,85,0.00,,,0.00,VWS V14.01,2013-01-10 16:21:00,
2013-01-10 06:26:00,68.3,63.6,29.92,NNE,16,14.0,14.0,85,0.00,,,0.00,VWS V14.01,2013-01-10 16:26:00,
2013-01-10 06:31:00,68.3,63.6,29.92,NE,51,8.0,11.0,85,0.00,,,0.00,VWS V14.01,2013-01-10 16:31:00,
2013-01-10 06:36:00,68.4,63.7,29.92,NNE,20,24.0,24.0,85,0.00,,,0.00,VWS V14.01,2013-01-10 16:36:00,
2013-01-10 06:41:00,68.4,63.7,29.93,NNE,22,14.0,17.0,85,0.00,,,0.00,VWS V14.01,2013-01-10 16:41:00,
2013-01-10 06:46:00,68.3,64.0,29.93,NNE,23,11.0,11.0,86,0.00,,,0.00,VWS V14.01,2013-01-10 16:46:00,
2013-01-10 06:51:00,68.1,63.8,29.93,NNE,31,18.0,18.0,86,0.00,,,0.00,VWS V14.01,2013-01-10 16:51:00,
2013-01-10 06:57:00,68.1,63.8,29.93,NE,47,14.0,17.0,86,0.00,,,0.00,VWS V14.01,2013-01-10 16:57:00,
2013-01-10 07:02:00,68.2,63.9,29.93,NNE,12,13.0,16.0,86,0.00,,,0.00,VWS V14.01,2013-01-10 17:02:00,
2013-01-10 07:07:00,68.2,63.9,29.93,NE,49,10.0,13.0,86,0.00,,,0.00,VWS V14.01,2013-01-10 17:07:00,
2013-01-10 07:12:00,68.3,64.0,29.93,ENE,61,12.0,13.0,86,0.00,,,0.00,VWS V14.01,2013-01-10 17:12:00,
2013-01-10 07:17:00,68.2,63.9,29.93,NE,38,9.0,14.0,86,0.00,,,0.00,VWS V14.01,2013-01-10 17:17:00,
2013-01-10 07:22:00,68.2,63.9,29.93,ENE,64,11.0,11.0,86,0.00,,,0.00,VWS V14.01,2013-01-10 17:22:00,
2013-01-10 07:27:00,68.3,64.0,29.94,NE,50,7.0,11.0,86,0.00,,,0.00,VWS V14.01,2013-01-10 17:27:00,
2013-01-10 07:32:00,68.6,63.9,29.94,NE,55,11.0,12.0,85,0.00,,,0.00,VWS V14.01,2013-01-10 17:32:00,
2013-01-10 07:37:00,68.2,63.2,29.94,NNE,21,9.0,10.0,84,0.00,,,0.00,VWS V14.01,2013-01-10 17:37:00,
2013-01-10 07:42:00,68.3,62.6,29.94,NE,40,12.0,12.0,82,0.00,,,0.00,VWS V14.01,2013-01-10 17:42:00,
2013-01-10 07:47:00,68.6,62.5,29.94,NNE,16,12.0,13.0,81,0.00,,,0.00,VWS V14.01,2013-01-10 17:47:00,
2013-01-10 07:52:00,69.0,62.9,29.94,NNE,28,7.0,11.0,81,0.00,,,0.00,VWS V14.01,2013-01-10 17:52:00,
2013-01-10 07:58:00,69.2,63.5,29.94,NE,49,6.0,11.0,82,0.00,,,0.00,VWS V14.01,2013-01-10 17:58:00,
2013-01-10 08:03:00,69.4,63.7,29.94,NE,35,8.0,11.0,82,0.00,,,0.00,VWS V14.01,2013-01-10 18:03:00,
2013-01-10 08:08:00,69.6,63.9,29.94,ENE,71,9.0,11.0,82,0.00,,,0.00,VWS V14.01,2013-01-10 18:08:00,
2013-01-10 08:13:00,69.8,63.7,29.94,NE,37,10.0,11.0,81,0.00,,,0.00,VWS V14.01,2013-01-10 18:13:00,
2013-01-10 08:18:00,69.6,63.5,29.95,ENE,57,8.0,10.0,81,0.00,,,0.00,VWS V14.01,2013-01-10 18:18:00,
2013-01-10 08:23:00,69.8,62.6,29.95,NE,38,11.0,11.0,78,0.00,,,0.00,VWS V14.01,2013-01-10 18:23:00,
2013-01-10 08:28:00,69.9,63.1,29.95,ENE,61,13.0,14.0,79,0.00,,,0.00,VWS V14.01,2013-01-10 18:28:00,
2013-01-10 08:33:00,69.9,62.7,29.95,NE,38,13.0,14.0,78,0.00,,,0.00,VWS V14.01,2013-01-10 18:33:00,
2013-01-10 08:38:00,70.0,63.5,29.95,NE,38,8.0,11.0,80,0.00,,,0.00,VWS V14.01,2013-01-10 18:38:00,
2013-01-10 08:43:00,70.1,63.7,29.95,NE,45,10.0,10.0,80,0.00,,,0.00,VWS V14.01,2013-01-10 18:43:00,
2013-01-10 08:48:00,70.4,64.3,29.96,ENE,61,11.0,11.0,81,0.00,,,0.00,VWS V14.01,2013-01-10 18:48:00,
2013-01-10 08:53:00,70.5,64.0,29.96,NNE,21,10.0,12.0,80,0.00,,,0.00,VWS V14.01,2013-01-10 18:53:00,
2013-01-10 08:58:00,70.5,64.0,29.96,NE,39,11.0,15.0,80,0.00,,,0.00,VWS V14.01,2013-01-10 18:58:00,
2013-01-10 09:03:00,70.5,64.0,29.96,East,99,13.0,19.0,80,0.00,,,0.00,VWS V14.01,2013-01-10 19:03:00,
2013-01-10 09:08:00,70.5,64.0,29.96,NE,46,11.0,12.0,80,0.00,,,0.00,VWS V14.01,2013-01-10 19:08:00,
2013-01-10 09:13:00,70.4,64.7,29.96,NNE,26,14.0,14.0,82,0.00,,,0.00,VWS V14.01,2013-01-10 19:13:00,
2013-01-10 09:18:00,70.9,65.1,29.96,NNE,33,24.0,24.0,82,0.00,,,0.00,VWS V14.01,2013-01-10 19:18:00,
2013-01-10 09:23:00,71.4,65.3,29.96,ENE,61,17.0,19.0,81,0.00,,,0.00,VWS V14.01,2013-01-10 19:23:00,
2013-01-10 09:28:00,71.4,65.3,29.96,NE,54,10.0,10.0,81,0.00,,,0.00,VWS V14.01,2013-01-10 19:28:00,
2013-01-10 09:33:00,71.2,65.4,29.96,NNE,29,14.0,15.0,82,0.00,,,0.00,VWS V14.01,2013-01-10 19:33:00,
2013-01-10 09:38:00,71.5,66.1,29.96,NE,47,11.0,11.0,83,0.00,,,0.00,VWS V14.01,2013-01-10 19:38:00,
2013-01-10 09:43:00,71.7,65.6,29.96,East,79,17.0,17.0,81,0.00,,,0.00,VWS V14.01,2013-01-10 19:43:00,
2013-01-10 09:48:00,71.9,65.4,29.96,East,80,14.0,15.0,80,0.00,,,0.00,VWS V14.01,2013-01-10 19:48:00,
2013-01-10 09:53:00,72.0,65.5,29.96,East,83,16.0,16.0,80,0.00,,,0.00,VWS V14.01,2013-01-10 19:53:00,
2013-01-10 09:58:00,71.9,65.8,29.95,ENE,65,13.0,13.0,81,0.00,,,0.00,VWS V14.01,2013-01-10 19:58:00,
2013-01-10 10:04:00,71.7,65.2,29.95,NE,42,10.0,14.0,80,0.00,,,0.00,VWS V14.01,2013-01-10 20:04:00,
2013-01-10 10:09:00,72.2,65.7,29.95,NE,50,10.0,16.0,80,0.00,,,0.00,VWS V14.01,2013-01-10 20:09:00,
2013-01-10 10:14:00,72.8,65.6,29.95,East,95,12.0,14.0,78,0.00,,,0.00,VWS V14.01,2013-01-10 20:14:00,
2013-01-10 10:19:00,73.4,63.8,29.95,East,101,10.0,12.0,72,0.00,,,0.00,VWS V14.01,2013-01-10 20:19:00,
2013-01-10 10:24:00,73.4,62.6,29.95,East,87,9.0,12.0,69,0.00,,,0.00,VWS V14.01,2013-01-10 20:24:00,
2013-01-10 10:29:00,73.5,61.5,29.95,ENE,69,7.0,9.0,66,0.00,,,0.00,VWS V14.01,2013-01-10 20:29:00,
2013-01-10 10:34:00,73.6,62.0,29.95,NE,51,8.0,8.0,67,0.00,,,0.00,VWS V14.01,2013-01-10 20:34:00,
2013-01-10 10:39:00,73.7,62.5,29.95,ENE,60,6.0,8.0,68,0.00,,,0.00,VWS V14.01,2013-01-10 20:39:00,
2013-01-10 10:45:00,74.3,63.5,29.94,ENE,63,11.0,16.0,69,0.00,,,0.00,VWS V14.01,2013-01-10 20:45:00,
2013-01-10 10:50:00,74.2,63.4,29.94,East,84,7.0,8.0,69,0.00,,,0.00,VWS V14.01,2013-01-10 20:50:00,
2013-01-10 10:55:00,74.4,64.0,29.94,East,100,16.0,16.0,70,0.00,,,0.00,VWS V14.01,2013-01-10 20:55:00,
2013-01-10 11:00:00,74.2,65.0,29.93,ENE,65,4.0,7.0,73,0.00,,,0.00,VWS V14.01,2013-01-10 21:00:00,
2013-01-10 11:05:00,74.2,64.6,29.93,NNE,24,8.0,8.0,72,0.00,,,0.00,VWS V14.01,2013-01-10 21:05:00,
2013-01-10 11:10:00,74.1,63.7,29.93,NE,39,4.0,9.0,70,0.00,,,0.00,VWS V14.01,2013-01-10 21:10:00,
2013-01-10 11:15:00,73.6,64.0,29.93,NE,52,7.0,7.0,72,0.00,,,0.00,VWS V14.01,2013-01-10 21:15:00,
2013-01-10 11:20:00,74.1,63.7,29.93,East,92,8.0,8.0,70,0.00,,,0.00,VWS V14.01,2013-01-10 21:20:00,
2013-01-10 11:25:00,74.5,64.1,29.92,NE,56,6.0,6.0,70,0.00,,,0.00,VWS V14.01,2013-01-10 21:25:00,
2013-01-10 11:30:00,75.2,62.2,29.92,NE,52,10.0,11.0,64,0.00,,,0.00,VWS V14.01,2013-01-10 21:30:00,
2013-01-10 11:35:00,75.0,64.2,29.92,NE,52,10.0,10.0,69,0.00,,,0.00,VWS V14.01,2013-01-10 21:35:00,
2013-01-10 11:40:00,75.2,63.1,29.92,ENE,61,10.0,10.0,66,0.00,,,0.00,VWS V14.01,2013-01-10 21:40:00,
2013-01-10 11:45:00,75.6,63.5,29.92,NNE,33,10.0,10.0,66,0.00,,,0.00,VWS V14.01,2013-01-10 21:45:00,
2013-01-10 11:50:00,75.0,64.2,29.92,NE,47,5.0,5.0,69,0.00,,,0.00,VWS V14.01,2013-01-10 21:50:00,
2013-01-10 11:55:00,74.9,65.7,29.91,East,83,6.0,10.0,73,0.00,,,0.00,VWS V14.01,2013-01-10 21:55:00,
2013-01-10 12:00:00,75.7,64.4,29.91,ESE,113,11.0,14.0,68,0.00,,,0.00,VWS V14.01,2013-01-10 22:00:00,
2013-01-10 12:05:00,75.6,63.9,29.91,NE,40,5.0,5.0,67,0.00,,,0.00,VWS V14.01,2013-01-10 22:05:00,
2013-01-10 12:10:00,75.6,64.3,29.91,East,83,7.0,10.0,68,0.00,,,0.00,VWS V14.01,2013-01-10 22:10:00,
2013-01-10 12:15:00,75.4,64.1,29.90,ENE,64,8.0,12.0,68,0.00,,,0.00,VWS V14.01,2013-01-10 22:15:00,
2013-01-10 12:20:00,75.8,64.1,29.90,NE,54,7.0,10.0,67,0.00,,,0.00,VWS V14.01,2013-01-10 22:20:00,
2013-01-10 12:25:00,76.1,63.5,29.90,ESE,106,12.0,12.0,65,0.00,,,0.00,VWS V14.01,2013-01-10 22:25:00,
2013-01-10 12:30:00,76.1,64.4,29.90,ENE,64,7.0,9.0,67,0.00,,,0.00,VWS V14.01,2013-01-10 22:30:00,
2013-01-10 12:35:00,76.5,65.2,29.89,ESE,102,15.0,17.0,68,0.00,,,0.00,VWS V14.01,2013-01-10 22:35:00,
2013-01-10 12:41:00,75.7,65.2,29.89,ESE,107,17.0,23.0,70,0.00,,,0.00,VWS V14.01,2013-01-10 22:41:00,
2013-01-10 12:46:00,75.3,65.7,29.88,ESE,107,13.0,14.0,72,0.00,,,0.00,VWS V14.01,2013-01-10 22:46:00,
2013-01-10 12:51:00,75.2,65.6,29.88,ESE,105,10.0,13.0,72,0.00,,,0.00,VWS V14.01,2013-01-10 22:51:00,
2013-01-10 12:56:00,75.0,65.4,29.88,East,99,11.0,18.0,72,0.00,,,0.00,VWS V14.01,2013-01-10 22:56:00,
2013-01-10 13:01:00,75.0,64.6,29.87,East,87,13.0,13.0,70,0.00,,,0.00,VWS V14.01,2013-01-10 23:01:00,
2013-01-10 13:06:00,75.6,64.7,29.87,ENE,63,6.0,7.0,69,0.00,,,0.00,VWS V14.01,2013-01-10 23:06:00,
2013-01-10 13:11:00,76.2,64.0,29.87,SE,130,9.0,11.0,66,0.00,,,0.00,VWS V14.01,2013-01-10 23:11:00,
2013-01-10 13:16:00,76.0,64.3,29.87,SE,129,12.0,12.0,67,0.00,,,0.00,VWS V14.01,2013-01-10 23:16:00,
2013-01-10 13:21:00,74.8,64.4,29.87,East,90,11.0,16.0,70,0.00,,,0.00,VWS V14.01,2013-01-10 23:21:00,
2013-01-10 13:26:00,75.7,64.8,29.86,ENE,64,8.0,11.0,69,0.00,,,0.00,VWS V14.01,2013-01-10 23:26:00,
2013-01-10 13:31:00,76.2,64.4,29.86,SE,125,17.0,19.0,67,0.00,,,0.00,VWS V14.01,2013-01-10 23:31:00,
2013-01-10 13:36:00,76.9,62.9,29.86,SE,144,10.0,12.0,62,0.00,,,0.00,VWS V14.01,2013-01-10 23:36:00,
2013-01-10 13:41:00,76.8,62.3,29.86,East,85,5.0,7.0,61,0.00,,,0.00,VWS V14.01,2013-01-10 23:41:00,
2013-01-10 13:47:00,76.0,63.4,29.86,ESE,103,15.0,15.0,65,0.00,,,0.00,VWS V14.01,2013-01-10 23:47:00,
2013-01-10 13:52:00,76.4,63.8,29.86,ENE,78,9.0,11.0,65,0.00,,,0.00,VWS V14.01,2013-01-10 23:52:00,
2013-01-10 13:57:00,76.1,63.9,29.86,ENE,65,13.0,18.0,66,0.00,,,0.00,VWS V14.01,2013-01-10 23:57:00,
2013-01-10 14:02:00,76.4,64.2,29.86,ESE,104,17.0,17.0,66,0.00,,,0.00,VWS V14.01,2013-01-11 00:02:00,
2013-01-10 14:07:00,75.9,63.3,29.86,ENE,72,11.0,11.0,65,0.00,,,0.00,VWS V14.01,2013-01-11 00:07:00,
2013-01-10 14:12:00,75.8,63.6,29.86,SE,125,8.0,11.0,66,0.00,,,0.00,VWS V14.01,2013-01-11 00:12:00,
2013-01-10 14:17:00,76.4,62.4,29.86,NNE,31,10.0,12.0,62,0.00,,,0.00,VWS V14.01,2013-01-11 00:17:00,
2013-01-10 14:22:00,76.4,63.3,29.85,ESE,111,9.0,10.0,64,0.00,,,0.00,VWS V14.01,2013-01-11 00:22:00,
2013-01-10 14:27:00,75.7,62.2,29.85,ENE,66,7.0,7.0,63,0.00,,,0.00,VWS V14.01,2013-01-11 00:27:00,
2013-01-10 14:32:00,74.8,63.1,29.86,ESE,102,6.0,9.0,67,0.00,,,0.00,VWS V14.01,2013-01-11 00:32:00,
2013-01-10 14:37:00,74.8,62.3,29.86,NE,45,6.0,8.0,65,0.00,,,0.00,VWS V14.01,2013-01-11 00:37:00,
2013-01-10 14:42:00,74.7,63.9,29.86,NNE,31,5.0,8.0,69,0.00,,,0.00,VWS V14.01,2013-01-11 00:42:00,
2013-01-10 14:47:00,74.8,63.5,29.86,NW,322,8.0,8.0,68,0.00,,,0.00,VWS V14.01,2013-01-11 00:47:00,
2013-01-10 14:52:00,75.5,63.8,29.86,NE,39,5.0,5.0,67,0.00,,,0.00,VWS V14.01,2013-01-11 00:52:00,
2013-01-10 14:57:00,75.7,64.8,29.86,East,91,5.0,7.0,69,0.00,,,0.00,VWS V14.01,2013-01-11 00:57:00,
2013-01-10 15:02:00,75.3,64.8,29.86,East,92,9.0,11.0,70,0.00,,,0.00,VWS V14.01,2013-01-11 01:02:00,
2013-01-10 15:08:00,75.4,64.5,29.87,East,79,9.0,9.0,69,0.00,,,0.00,VWS V14.01,2013-01-11 01:08:00,
2013-01-10 15:13:00,75.6,63.9,29.87,East,99,15.0,15.0,67,0.00,,,0.00,VWS V14.01,2013-01-11 01:13:00,
2013-01-10 15:18:00,75.5,63.8,29.87,NE,47,7.0,8.0,67,0.00,,,0.00,VWS V14.01,2013-01-11 01:18:00,
2013-01-10 15:23:00,75.5,63.8,29.87,ENE,68,5.0,5.0,67,0.00,,,0.00,VWS V14.01,2013-01-11 01:23:00,
2013-01-10 15:28:00,75.0,64.2,29.87,ENE,64,13.0,13.0,69,0.00,,,0.00,VWS V14.01,2013-01-11 01:28:00,
2013-01-10 15:33:00,75.2,63.9,29.87,NE,54,7.0,8.0,68,0.00,,,0.00,VWS V14.01,2013-01-11 01:33:00,
2013-01-10 15:38:00,74.7,63.9,29.87,North,352,12.0,12.0,69,0.00,,,0.00,VWS V14.01,2013-01-11 01:38:00,
2013-01-10 15:43:00,74.3,63.9,29.87,North,10,7.0,10.0,70,0.00,,,0.00,VWS V14.01,2013-01-11 01:43:00,
2013-01-10 15:48:00,74.0,63.6,29.87,NNE,17,8.0,8.0,70,0.00,,,0.00,VWS V14.01,2013-01-11 01:48:00,
2013-01-10 15:53:00,74.1,63.7,29.88,NNE,23,2.0,3.0,70,0.00,,,0.00,VWS V14.01,2013-01-11 01:53:00,
2013-01-10 15:58:00,74.2,63.4,29.88,North,360,11.0,14.0,69,0.00,,,0.00,VWS V14.01,2013-01-11 01:58:00,
2013-01-10 16:03:00,73.8,63.8,29.88,NE,50,6.0,6.0,71,0.00,,,0.00,VWS V14.01,2013-01-11 02:03:00,
2013-01-10 16:08:00,73.5,63.5,29.88,North,7,15.0,20.0,71,0.00,,,0.00,VWS V14.01,2013-01-11 02:08:00,
2013-01-10 16:13:00,73.3,63.3,29.88,North,352,15.0,16.0,71,0.00,,,0.00,VWS V14.01,2013-01-11 02:13:00,
2013-01-10 16:18:00,73.0,63.5,29.89,NNE,21,9.0,10.0,72,0.00,,,0.00,VWS V14.01,2013-01-11 02:18:00,
2013-01-10 16:23:00,73.2,63.2,29.89,ENE,75,8.0,11.0,71,0.00,,,0.00,VWS V14.01,2013-01-11 02:23:00,
2013-01-10 16:29:00,72.9,63.0,29.89,NNE,28,5.0,5.0,71,0.00,,,0.00,VWS V14.01,2013-01-11 02:29:00,
2013-01-10 16:33:00,72.9,63.0,29.89,NE,55,8.0,8.0,71,0.00,,,0.00,VWS V14.01,2013-01-11 02:33:00,
2013-01-10 16:39:00,72.8,63.3,29.89,ENE,64,10.0,12.0,72,0.00,,,0.00,VWS V14.01,2013-01-11 02:39:00,
2013-01-10 16:44:00,72.6,62.7,29.89,NNE,33,4.0,5.0,71,0.00,,,0.00,VWS V14.01,2013-01-11 02:44:00,
2013-01-10 16:49:00,72.7,62.8,29.90,NE,39,9.0,9.0,71,0.00,,,0.00,VWS V14.01,2013-01-11 02:49:00,
2013-01-10 16:54:00,72.7,62.4,29.90,NNE,31,8.0,8.0,70,0.00,,,0.00,VWS V14.01,2013-01-11 02:54:00,
2013-01-10 16:59:00,72.5,62.6,29.90,NE,42,1.0,3.0,71,0.00,,,0.00,VWS V14.01,2013-01-11 02:59:00,
2013-01-10 17:04:00,72.1,62.6,29.90,North,353,12.0,15.0,72,0.00,,,0.00,VWS V14.01,2013-01-11 03:04:00,
2013-01-10 17:09:00,71.8,62.7,29.91,NE,38,6.0,6.0,73,0.00,,,0.00,VWS V14.01,2013-01-11 03:09:00,
2013-01-10 17:14:00,71.6,62.9,29.91,NE,56,15.0,15.0,74,0.00,,,0.00,VWS V14.01,2013-01-11 03:14:00,
2013-01-10 17:19:00,71.4,63.1,29.91,NE,54,6.0,9.0,75,0.00,,,0.00,VWS V14.01,2013-01-11 03:19:00,
2013-01-10 17:24:00,71.3,63.0,29.91,ENE,71,7.0,7.0,75,0.00,,,0.00,VWS V14.01,2013-01-11 03:24:00,
2013-01-10 17:29:00,71.2,62.9,29.92,NW,320,9.0,9.0,75,0.00,,,0.00,VWS V14.01,2013-01-11 03:29:00,
2013-01-10 17:34:00,71.1,62.8,29.92,NNE,28,4.0,4.0,75,0.00,,,0.00,VWS V14.01,2013-01-11 03:34:00,
2013-01-10 17:39:00,70.9,63.0,29.92,North,357,8.0,9.0,76,0.00,,,0.00,VWS V14.01,2013-01-11 03:39:00,
2013-01-10 17:44:00,70.9,62.6,29.92,North,357,13.0,13.0,75,0.00,,,0.00,VWS V14.01,2013-01-11 03:44:00,
2013-01-10 17:49:00,70.9,62.6,29.92,NE,56,9.0,16.0,75,0.00,,,0.00,VWS V14.01,2013-01-11 03:49:00,
2013-01-10 17:54:00,70.9,62.2,29.92,NNE,21,5.0,7.0,74,0.00,,,0.00,VWS V14.01,2013-01-11 03:54:00,
2013-01-10 17:59:00,70.9,61.8,29.92,NNE,16,9.0,13.0,73,0.00,,,0.00,VWS V14.01,2013-01-11 03:59:00,
2013-01-10 18:04:00,70.7,62.0,29.92,NNW,348,14.0,14.0,74,0.00,,,0.00,VWS V14.01,2013-01-11 04:04:00,
2013-01-10 18:09:00,70.5,62.2,29.92,NE,45,3.0,3.0,75,0.00,,,0.00,VWS V14.01,2013-01-11 04:09:00,
2013-01-10 18:15:00,70.3,62.4,29.93,NE,34,15.0,15.0,76,0.00,,,0.00,VWS V14.01,2013-01-11 04:15:00,
2013-01-10 18:20:00,70.1,62.9,29.92,ENE,59,11.0,11.0,78,0.00,,,0.00,VWS V14.01,2013-01-11 04:20:00,
2013-01-10 18:25:00,69.9,63.1,29.93,North,7,12.0,13.0,79,0.00,,,0.00,VWS V14.01,2013-01-11 04:25:00,
2013-01-10 18:30:00,69.8,63.4,29.93,NE,38,10.0,15.0,80,0.00,,,0.00,VWS V14.01,2013-01-11 04:30:00,
2013-01-10 18:35:00,69.7,62.9,29.93,NNE,14,15.0,18.0,79,0.00,,,0.00,VWS V14.01,2013-01-11 04:35:00,
2013-01-10 18:40:00,69.5,63.1,29.94,North,10,10.0,10.0,80,0.00,,,0.00,VWS V14.01,2013-01-11 04:40:00,
2013-01-10 18:45:00,69.5,63.1,29.94,East,96,7.0,11.0,80,0.00,,,0.00,VWS V14.01,2013-01-11 04:45:00,
2013-01-10 18:50:00,69.4,63.3,29.94,NNE,26,14.0,15.0,81,0.00,,,0.00,VWS V14.01,2013-01-11 04:50:00,
2013-01-10 18:55:00,69.4,63.0,29.94,North,7,11.0,11.0,80,0.00,,,0.00,VWS V14.01,2013-01-11 04:55:00,
2013-01-10 19:00:00,69.3,62.9,29.94,NNE,21,17.0,17.0,80,0.00,,,0.00,VWS V14.01,2013-01-11 05:00:00,
2013-01-10 19:03:00,69.2,62.8,29.93,NNE,22,13.0,15.0,80,0.00,,,0.00,VWS V14.01,2013-01-11 05:03:00,
2013-01-10 19:04:00,69.2,62.8,29.94,NNE,21,8.0,10.0,80,0.00,,,0.00,VWS V14.01,2013-01-11 05:04:00,
2013-01-10 19:09:00,69.3,62.9,29.93,NE,35,7.0,9.0,80,0.00,,,0.00,VWS V14.01,2013-01-11 05:09:00,
2013-01-10 19:14:00,69.3,62.9,29.93,ENE,75,7.0,7.0,80,0.00,,,0.00,VWS V14.01,2013-01-11 05:14:00,
2013-01-10 19:19:00,69.3,63.2,29.94,NNE,31,10.0,12.0,81,0.00,,,0.00,VWS V14.01,2013-01-11 05:19:00,
2013-01-10 19:24:00,69.2,63.5,29.94,NE,34,17.0,17.0,82,0.00,,,0.00,VWS V14.01,2013-01-11 05:24:00,
2013-01-10 19:29:00,69.2,63.5,29.94,NNE,15,11.0,12.0,82,0.00,,,0.00,VWS V14.01,2013-01-11 05:29:00,
2013-01-10 19:34:00,69.1,63.4,29.94,NNE,31,15.0,15.0,82,0.00,,,0.00,VWS V14.01,2013-01-11 05:34:00,
2013-01-10 19:39:00,69.1,63.4,29.94,North,5,15.0,15.0,82,0.00,,,0.00,VWS V14.01,2013-01-11 05:39:00,
2013-01-10 19:44:00,69.0,63.3,29.95,NE,52,4.0,8.0,82,0.00,,,0.00,VWS V14.01,2013-01-11 05:44:00,
2013-01-10 19:49:00,69.0,63.3,29.95,NE,52,9.0,14.0,82,0.00,,,0.00,VWS V14.01,2013-01-11 05:49:00,
2013-01-10 19:54:00,68.9,63.5,29.95,NNE,16,9.0,9.0,83,0.00,,,0.00,VWS V14.01,2013-01-11 05:54:00,
2013-01-10 20:00:00,68.8,63.4,29.95,NNE,21,11.0,16.0,83,0.00,,,0.00,VWS V14.01,2013-01-11 06:00:00,
2013-01-10 20:05:00,68.7,63.7,29.95,NNE,28,8.0,11.0,84,0.00,,,0.00,VWS V14.01,2013-01-11 06:05:00,
2013-01-10 20:09:00,68.6,63.6,29.95,NNE,25,10.0,13.0,84,0.00,,,0.00,VWS V14.01,2013-01-11 06:09:00,
2013-01-10 20:15:00,68.6,63.6,29.95,North,6,15.0,16.0,84,0.00,,,0.00,VWS V14.01,2013-01-11 06:15:00,
2013-01-10 20:20:00,68.6,63.6,29.95,NE,41,9.0,14.0,84,0.00,,,0.00,VWS V14.01,2013-01-11 06:20:00,
2013-01-10 20:25:00,68.6,63.2,29.95,East,80,8.0,10.0,83,0.00,,,0.00,VWS V14.01,2013-01-11 06:25:00,
2013-01-10 20:30:00,68.8,63.1,29.95,NNE,23,15.0,15.0,82,0.00,,,0.00,VWS V14.01,2013-01-11 06:30:00,
2013-01-10 20:35:00,68.8,63.4,29.95,NNE,26,11.0,14.0,83,0.00,,,0.00,VWS V14.01,2013-01-11 06:35:00,
2013-01-10 20:40:00,68.6,63.2,29.96,NNE,23,9.0,9.0,83,0.00,,,0.00,VWS V14.01,2013-01-11 06:40:00,
2013-01-10 20:45:00,68.5,63.5,29.96,NE,35,7.0,7.0,84,0.00,,,0.00,VWS V14.01,2013-01-11 06:45:00,
2013-01-10 20:50:00,68.4,63.4,29.96,ENE,75,3.0,5.0,84,0.00,,,0.00,VWS V14.01,2013-01-11 06:50:00,
2013-01-10 20:55:00,68.3,63.3,29.96,NNE,26,4.0,6.0,84,0.00,,,0.00,VWS V14.01,2013-01-11 06:55:00,
2013-01-10 21:00:00,68.4,63.4,29.96,NNE,22,7.0,12.0,84,0.00,,,0.00,VWS V14.01,2013-01-11 07:00:00,
2013-01-10 21:05:00,68.4,63.4,29.96,NNE,21,11.0,13.0,84,0.00,,,0.00,VWS V14.01,2013-01-11 07:05:00,
2013-01-10 21:10:00,68.4,63.4,29.96,NNE,19,10.0,10.0,84,0.00,,,0.00,VWS V14.01,2013-01-11 07:10:00,
2013-01-10 21:15:00,68.3,63.3,29.96,NNE,16,14.0,14.0,84,0.00,,,0.00,VWS V14.01,2013-01-11 07:15:00,
2013-01-10 21:21:00,68.4,63.4,29.96,NNE,19,15.0,18.0,84,0.00,,,0.00,VWS V14.01,2013-01-11 07:21:00,
2013-01-10 21:26:00,68.4,63.4,29.96,NNE,33,7.0,7.0,84,0.00,,,0.00,VWS V14.01,2013-01-11 07:26:00,
2013-01-10 21:31:00,68.5,63.5,29.96,NNE,23,10.0,10.0,84,0.00,,,0.00,VWS V14.01,2013-01-11 07:31:00,
2013-01-10 21:36:00,68.5,63.5,29.97,NE,45,3.0,4.0,84,0.00,,,0.00,VWS V14.01,2013-01-11 07:36:00,
2013-01-10 21:41:00,68.4,63.7,29.97,ENE,71,8.0,12.0,85,0.00,,,0.00,VWS V14.01,2013-01-11 07:41:00,
2013-01-10 21:46:00,68.1,63.8,29.97,NE,52,6.0,6.0,86,0.00,,,0.00,VWS V14.01,2013-01-11 07:46:00,
2013-01-10 21:52:00,67.7,63.4,29.96,NE,47,4.0,7.0,86,0.00,,,0.00,VWS V14.01,2013-01-11 07:52:00,
2013-01-10 21:57:00,67.7,63.0,29.97,NNE,28,5.0,5.0,85,0.00,,,0.00,VWS V14.01,2013-01-11 07:57:00,
2013-01-10 22:02:00,67.7,63.0,29.97,NE,46,9.0,9.0,85,0.00,,,0.00,VWS V14.01,2013-01-11 08:02:00,
2013-01-10 22:07:00,67.8,62.8,29.97,North,360,7.0,7.0,84,0.00,,,0.00,VWS V14.01,2013-01-11 08:07:00,
2013-01-10 22:12:00,67.8,62.8,29.97,NE,37,5.0,7.0,84,0.00,,,0.00,VWS V14.01,2013-01-11 08:12:00,
2013-01-10 22:17:00,67.8,62.8,29.97,NW,312,10.0,10.0,84,0.00,,,0.00,VWS V14.01,2013-01-11 08:17:00,
2013-01-10 22:22:00,67.9,63.2,29.96,NE,40,7.0,7.0,85,0.00,,,0.00,VWS V14.01,2013-01-11 08:22:00,
2013-01-10 22:27:00,68.0,63.3,29.97,NNE,21,5.0,8.0,85,0.00,,,0.00,VWS V14.01,2013-01-11 08:27:00,
2013-01-10 22:32:00,68.0,63.3,29.97,NNE,23,5.0,6.0,85,0.00,,,0.00,VWS V14.01,2013-01-11 08:32:00,
2013-01-10 22:37:00,67.9,63.2,29.96,North,2,5.0,6.0,85,0.00,,,0.00,VWS V14.01,2013-01-11 08:37:00,
2013-01-10 22:42:00,67.9,63.6,29.96,NNE,14,8.0,9.0,86,0.00,,,0.00,VWS V14.01,2013-01-11 08:42:00,
2013-01-10 22:47:00,67.9,63.2,29.97,NNE,20,6.0,8.0,85,0.00,,,0.00,VWS V14.01,2013-01-11 08:47:00,
2013-01-10 22:52:00,67.9,63.6,29.96,NNE,23,7.0,7.0,86,0.00,,,0.00,VWS V14.01,2013-01-11 08:52:00,
2013-01-10 22:57:00,68.1,63.8,29.97,North,9,9.0,10.0,86,0.00,,,0.00,VWS V14.01,2013-01-11 08:57:00,
2013-01-10 23:02:00,68.1,63.4,29.96,NNE,12,11.0,11.0,85,0.00,,,0.00,VWS V14.01,2013-01-11 09:02:00,
2013-01-10 23:07:00,68.3,64.0,29.96,NE,42,6.0,8.0,86,0.00,,,0.00,VWS V14.01,2013-01-11 09:07:00,
2013-01-10 23:13:00,68.2,63.9,29.97,ENE,59,4.0,5.0,86,0.00,,,0.00,VWS V14.01,2013-01-11 09:13:00,
2013-01-10 23:19:00,68.2,63.9,29.96,NNE,19,7.0,12.0,86,0.00,,,0.00,VWS V14.01,2013-01-11 09:19:00,
2013-01-10 23:24:00,68.4,63.7,29.96,NNW,334,6.0,7.0,85,0.00,,,0.00,VWS V14.01,2013-01-11 09:24:00,
2013-01-10 23:29:00,68.3,64.0,29.96,NE,47,6.0,7.0,86,0.00,,,0.00,VWS V14.01,2013-01-11 09:29:00,
2013-01-10 23:34:00,68.3,63.6,29.96,NE,50,8.0,9.0,85,0.00,,,0.00,VWS V14.01,2013-01-11 09:34:00,
2013-01-10 23:39:00,68.4,63.7,29.96,East,80,6.0,6.0,85,0.00,,,0.00,VWS V14.01,2013-01-11 09:39:00,
2013-01-10 23:44:00,68.4,63.7,29.96,NNE,28,10.0,10.0,85,0.00,,,0.00,VWS V14.01,2013-01-11 09:44:00,
2013-01-10 23:49:00,68.4,64.1,29.96,North,5,5.0,5.0,86,0.00,,,0.00,VWS V14.01,2013-01-11 09:49:00,
2013-01-10 23:54:00,68.3,64.0,29.96,NE,55,5.0,5.0,86,0.00,,,0.00,VWS V14.01,2013-01-11 09:54:00,